Location: *
(48.8780°N, 19.2358°E)
Time: 07:43:45
(UTC+00:00)

STARLINK-27 - Pass Details

Date: 18 October 2019
Orbit: 548 x 551 km, 53.0° (Epoch: 11 November)

Event Time Altitude Azimuth Distance (km) Brightness Sun altitude
Rises 16:33:33 0° 253° (WSW) 2,712 9.2 -8.1°
Reaches altitude 10° 16:35:47 10° 256° (WSW) 1,820 7.9 -8.5°
Maximum altitude 16:39:55 70° 340° (NNW) 589 3.8 -9.2°
Enters shadow 16:43:48 12° 64° (ENE) 1,724 5.6 -9.8°
